| time (UTC) | temp C | wind direction | speed KPH | gust KPH | rain 1hr cm | rain 24hr cm | rain mn cm | humidity % | barometer mb |
| 20260502123017 | 7 | 0.0 | 6.4 | 0.00 | 0.00 | 0.00 | 40 | 1015.0 | |
| 20260502113036 | 11 | 270 | 4.8 | 22.5 | 0.00 | 0.00 | 0.00 | 33 | 1016.2 |
| 20260502110017 | 10 | 270 | 3.2 | 12.9 | 0.00 | 0.00 | 0.00 | 35 | 1016.5 |
| 20260502103017 | 10 | 270 | 3.2 | 16.1 | 0.00 | 0.00 | 0.00 | 37 | 1015.8 |
| 20260502070016 | 9 | 180 | 3.2 | 11.3 | 0.00 | 0.00 | 0.00 | 40 | 1016.5 |
| 20260502063016 | 9 | 180 | 3.2 | 11.3 | 0.00 | 0.00 | 0.00 | 42 | 1016.0 |
| 20260502060136 | 9 | 180 | 4.8 | 12.9 | 0.00 | 0.00 | 0.00 | 42 | 1016.6 |
| 20260502053015 | 9 | 158 | 8.0 | 19.3 | 0.00 | 0.00 | 0.00 | 44 | 1016.4 |
| 20260502050016 | 10 | 158 | 8.0 | 20.9 | 0.00 | 0.00 | 0.00 | 42 | 1016.5 |
| 20260502043015 | 8 | 0.0 | 6.4 | 0.00 | 0.00 | 0.00 | 43 | 1016.3 | |
| 20260502040035 | 9 | 0.0 | 4.8 | 0.00 | 0.00 | 0.00 | 41 | 1015.9 | |
| 20260502033015 | 11 | 23 | 1.6 | 4.8 | 0.00 | 0.00 | 0.00 | 40 | 1015.8 |
| 20260502030015 | 12 | 23 | 1.6 | 4.8 | 0.00 | 0.00 | 0.00 | 35 | 1015.9 |
| 20260502023017 | 15 | 0.0 | 3.2 | 0.00 | 0.00 | 0.00 | 27 | 1015.5 | |
| 20260502020037 | 17 | 0 | 1.6 | 8.0 | 0.00 | 0.00 | 0.00 | 24 | 1015.9 |
| 20260502013017 | 17 | 0 | 3.2 | 11.3 | 0.00 | 0.00 | 0.00 | 23 | 1015.5 |
| 20260502010017 | 18 | 45 | 4.8 | 16.1 | 0.00 | 0.00 | 0.00 | 22 | 1015.5 |
| 20260502003017 | 18 | 45 | 4.8 | 16.1 | 0.00 | 0.00 | 0.00 | 22 | 1015.4 |
| 20260502000017 | 18 | 90 | 4.8 | 14.5 | 0.00 | 0.00 | 0.00 | 22 | 1015.5 |
| 20260501233037 | 18 | 45 | 4.8 | 17.7 | 0.00 | 0.00 | 0.00 | 22 | 1015.6 |
| 20260501230037 | 19 | 45 | 3.2 | 14.5 | 0.00 | 0.00 | 0.00 | 22 | 1015.9 |
| 20260501223017 | 18 | 45 | 6.4 | 17.7 | 0.00 | 0.00 | 0.00 | 22 | 1015.3 |
| 20260501220036 | 18 | 23 | 6.4 | 17.7 | 0.00 | 0.00 | 0.00 | 22 | 1015.4 |
| 20260501213017 | 18 | 45 | 6.4 | 19.3 | 0.00 | 0.00 | 0.00 | 22 | 1016.2 |
| 20260501210016 | 18 | 158 | 4.8 | 12.9 | 0.00 | 0.00 | 0.00 | 23 | 1017.1 |
| 20260501203036 | 18 | 45 | 4.8 | 12.9 | 0.00 | 0.00 | 0.00 | 24 | 1016.8 |
| 20260501200016 | 17 | 248 | 4.8 | 19.3 | 0.00 | 0.00 | 0.00 | 24 | 1016.9 |
| 20260501193016 | 16 | 113 | 4.8 | 19.3 | 0.00 | 0.00 | 0.00 | 25 | 1016.9 |
| 20260501190016 | 17 | 225 | 4.8 | 14.5 | 0.00 | 0.00 | 0.00 | 25 | 1017.2 |
| 20260501183016 | 15 | 338 | 6.4 | 17.7 | 0.00 | 0.00 | 0.00 | 27 | 1017.0 |
| 20260501180016 | 16 | 135 | 3.2 | 11.3 | 0.00 | 0.00 | 0.00 | 25 | 1017.6 |
| 20260501173016 | 15 | 68 | 4.8 | 14.5 | 0.00 | 0.00 | 0.00 | 26 | 1017.7 |
| 20260501170015 | 15 | 248 | 3.2 | 12.9 | 0.00 | 0.00 | 0.00 | 27 | 1018.3 |
| 20260501163015 | 14 | 270 | 4.8 | 16.1 | 0.00 | 0.00 | 0.00 | 27 | 1017.8 |